[[{"header":{"parameterUnit":"m.s-1","parameterCategory":1,"la1":30.2991,"la2":30.254,"lo1":-89.0895,"lo2":-89.0444,"dy":0.0017,"dx":0.0017,"nx":28,"ny":28,"refTime":"2024-08-18T03:00:00:Z","depth":0,"parameterNumber":2,"parameterNumberName":"U-component_of_WINDS"},"data":[0,0,0,0,0,0,0,0,0,0,0,0,0,0,0,0,0,0,0,0,0,0,0,0,0,0,0,0,0,0,0,0,0,0,0,0,0,0,0,0,0,0,0,0,0,0,0,0,0,0,0,0,0,0,0,0,0,0,0.0865,0.0865,0,0.0816,0.0815,0.0815,0.0731,0.073,0.0728,0.0727,0.0679,0.068,0.068,0,0,0,0,0,0,0,0,0,0,0,0,0,0.089,0.089,0.0865,0.0865,0.0864,0.0816,0.0815,0.0815,0.0732,0.073,0.0728,0.0726,0.0679,0.068,0.068,0,0,0,0,0,0,0,0,0,0,0,0,0,0.0864,0.089,0.0865,0.0817,0.0812,0.0816,0.0815,0.0815,0.0732,0.073,0.0727,0.0725,0.0679,0.068,0.068,0.0729,0,0,0.0681,0.0681,0,0,0,0,0,0,0,0,0.0866,0.0863,0.0824,0.082,0.0815,0.0777,0.0807,0.0786,0.0733,0.0762,0.0727,0.0724,0.0714,0.0711,0.0707,0.0727,0.0725,0.0681,0.0681,0.0681,0.0681,0,0,0,0,0,0,0,0.0868,0.0865,0.0846,0.0824,0.0818,0.0798,0.0792,0.0802,0.0752,0.076,0.0753,0.0749,0.0711,0.0707,0.0706,0.0724,0.0681,0.0681,0.0681,0.0681,0.0782,0.0784,0,0,0,0,0,0,0.0876,0.0867,0.0847,0.0844,0.0835,0.08,0.0793,0.0792,0.0752,0.0743,0.0751,0.0745,0.0708,0.0705,0.0704,0.076,0.0681,0.0681,0.0682,0.0779,0.0782,0.0785,0,0,0,0,0,0,0.0877,0.0875,0.0849,0.0854,0.0849,0.0802,0.0801,0.0792,0.0788,0.0745,0.0736,0.0756,0.0706,0.0703,0.0723,0.0757,0.0682,0.0682,0.0776,0.078,0.0784,0.0873,0,0,0,0,0,0,0.0878,0.0876,0.0894,0.0855,0.0849,0.087,0.0803,0.0793,0.0789,0.0781,0.0748,0.074,0.0704,0.0723,0.0724,0.0756,0.0682,0.0773,0.0778,0.0783,0.0867,0.0879,0.089,0,0,0,0,0,0.0879,0.0921,0.0895,0.0893,0.087,0.0872,0.0868,0.0825,0.0792,0.081,0.0782,0.0741,0.0753,0.0726,0.0726,0.0759,0.0771,0.0777,0.0782,0.0861,0.0877,0.0889,0,0,0,0,0,0,0.0966,0.0915,0.0886,0.0916,0.0899,0.0857,0.0879,0.0842,0.0835,0.0828,0.0776,0.0769,0.0796,0.0779,0.075,0.0805,0.0756,0.0761,0.0816,0.083,0.0841,0.0847,0.0682,0,0,0,0,0,0.0989,0.0993,0.0948,0.098,0.0972,0.0927,0.0926,0.0894,0.0875,0.0867,0.0841,0.0824,0.0824,0.0825,0.0822,0.0862,0.0855,0.0885,0.0896,0.0906,0.0913,0.0935,0.0948,0.0803,0.0803,0.0803,0,0,0.1036,0.1008,0.1015,0.0996,0.0979,0.0986,0.0922,0.0932,0.0937,0.0869,0.0887,0.0866,0.0844,0.0875,0.0887,0.0861,0.0951,0.0913,0.0921,0.0923,0.0942,0.0956,0.0968,0.0807,0.0807,0.0806,0,0,0.1127,0.1105,0.1129,0.1113,0.1087,0.1057,0.1063,0.1026,0.101,0.1027,0.0976,0.0981,0.0982,0.0969,0.0962,0.1046,0.101,0.1046,0.1108,0.113,0.1142,0.1152,0.1184,0.1197,0.1053,0.1053,0.1053,0,0.119,0.1197,0.1147,0.116,0.1155,0.1091,0.1116,0.1103,0.1079,0.1077,0.1047,0.1047,0.1027,0.1055,0.1075,0.1071,0.1078,0.1052,0.1144,0.1153,0.1162,0.1193,0.1205,0.1058,0.1057,0.1057,0.1056,0,0.1277,0.1283,0.1306,0.1283,0.1279,0.1298,0.1252,0.1254,0.1222,0.1195,0.1213,0.1186,0.1178,0.1181,0.115,0.1205,0.119,0.1153,0.1103,0.1181,0.121,0.1221,0.1065,0.1063,0.1062,0.106,0,0,0.1425,0.1372,0.1382,0.1371,0.1337,0.1341,0.1357,0.1348,0.1352,0.1336,0.1351,0.1352,0.1317,0.1309,0.1276,0.1294,0.1366,0.1255,0.1253,0.1279,0.1428,0.1459,0.1473,0.1339,0.1341,0.1343,0.1431,0,0.1511,0.1536,0.149,0.1527,0.1533,0.1472,0.1486,0.1468,0.1442,0.1444,0.1416,0.1419,0.1371,0.1367,0.1382,0.1354,0.1396,0.1346,0.1355,0.1356,0.1367,0.1487,0.1521,0.1605,0.1441,0.1443,0.1444,0,0.1616,0.1605,0.1642,0.1606,0.1606,0.162,0.1609,0.161,0.1588,0.1568,0.1559,0.1519,0.1534,0.1483,0.1504,0.1471,0.1471,0.1458,0.146,0.1463,0.1408,0.1497,0.163,0.1645,0.146,0.1459,0.1458,0,0.1724,0.1718,0.174,0.1732,0.1689,0.1701,0.1684,0.1659,0.1656,0.1646,0.1644,0.1635,0.1632,0.1627,0.1586,0.1552,0.1613,0.1557,0.1599,0.1601,0.1619,0.1619,0.1758,0.1612,0.1612,0.1611,0.1611,0,0.1828,0.1854,0.1788,0.1802,0.1829,0.1776,0.1805,0.1782,0.176,0.1769,0.1714,0.1725,0.1667,0.1672,0.1639,0.1663,0.1661,0.1647,0.1639,0.1655,0.1657,0.1657,0.1652,0.1615,0.1614,0.1613,0.1613,0,0.1956,0.1912,0.1932,0.189,0.1879,0.1902,0.1866,0.1878,0.1847,0.186,0.186,0.1813,0.1815,0.1772,0.1766,0.1744,0.1784,0.1763,0.1792,0.1787,0.1833,0.1831,0.1981,0.1999,0.1837,0.1839,0.184,0,0.2027,0.2046,0.2004,0.2006,0.1992,0.1995,0.1992,0.1939,0.1939,0.1914,0.193,0.1926,0.1922,0.1928,0.1895,0.189,0.1871,0.1923,0.187,0.1886,0.1877,0.1878,0.1881,0.1937,0.1939,0.194,0.1942,0,0.216,0.2137,0.2134,0.2123,0.2121,0.211,0.2096,0.2101,0.2044,0.2046,0.2047,0.2043,0.2036,0.2035,0.2023,0.2006,0.1967,0.1958,0.1968,0.1987,0.2004,0.1999,0.1827,0.1956,0.1954,0.1953,0.1953,0.1952,0.2264,0.2278,0.2252,0.225,0.2234,0.2222,0.2231,0.2201,0.2201,0.2191,0.2159,0.2166,0.2143,0.2123,0.211,0.2115,0.209,0.2103,0.2108,0.2113,0.2124,0.1999,0.2112,0.2112,0.2111,0.2111,0.2111,0,0.2397,0.2376,0.2375,0.2357,0.2356,0.2314,0.2296,0.23,0.2306,0.2287,0.2283,0.2285,0.2283,0.2248,0.2243,0.2254,0.2235,0.2255,0.2256,0.2253,0.2145,0.2138,0.227,0.227,0.227,0.227,0.227,0.227,0.2467,0.2489,0.2463,0.2477,0.2456,0.2461,0.2455,0.2444,0.2429,0.2433,0.2431,0.2407,0.2383,0.2375,0.2372,0.2362,0.2364,0.2391,0.2375,0.2276,0.2261,0.2246,0.224,0.2391,0.2391,0.2484,0.2485,0.2485]},{"header":{"parameterUnit":"m.s-1","parameterCategory":1,"la1":30.2991,"la2":30.254,"lo1":-89.0895,"lo2":-89.0444,"dy":0.0017,"dx":0.0017,"nx":28,"ny":28,"refTime":"2024-08-18T03:00:00:Z","depth":0,"parameterNumber":3,"parameterNumberName":"V-component_of_WINDS"},"data":[0,0,0,0,0,0,0,0,0,0,0,0,0,0,0,0,0,0,0,0,0,0,0,0,0,0,0,0,0,0,0,0,0,0,0,0,0,0,0,0,0,0,0,0,0,0,0,0,0,0,0,0,0,0,0,0,0,0,-4.3679,-4.3679,0,-4.3749,-4.375,-4.3751,-4.3734,-4.3732,-4.3731,-4.373,-4.3797,-4.38,-4.3803,0,0,0,0,0,0,0,0,0,0,0,0,0,-4.3526,-4.3529,-4.3679,-4.368,-4.368,-4.3749,-4.375,-4.3751,-4.3734,-4.3732,-4.3731,-4.3729,-4.3796,-4.38,-4.3803,0,0,0,0,0,0,0,0,0,0,0,0,0,-4.3594,-4.353,-4.3678,-4.368,-4.3681,-4.3749,-4.375,-4.3751,-4.3734,-4.3732,-4.373,-4.3728,-4.3795,-4.3799,-4.3804,-4.3873,0,0,-4.3818,-4.382,0,0,0,0,0,0,0,0,-4.359,-4.36,-4.3679,-4.368,-4.3681,-4.3731,-4.3721,-4.3792,-4.3735,-4.3714,-4.373,-4.3727,-4.3776,-4.3782,-4.38,-4.3876,-4.3879,-4.3818,-4.3821,-4.3823,-4.3824,0,0,0,0,0,0,0,-4.3585,-4.3596,-4.3706,-4.368,-4.3682,-4.3677,-4.3684,-4.3734,-4.3755,-4.3716,-4.3714,-4.3723,-4.3776,-4.3795,-4.3801,-4.388,-4.3818,-4.3822,-4.3825,-4.3827,-4.4018,-4.402,0,0,0,0,0,0,-4.358,-4.3593,-4.3704,-4.3709,-4.363,-4.3681,-4.3689,-4.3717,-4.3755,-4.3759,-4.3725,-4.3722,-4.3789,-4.3796,-4.3803,-4.3888,-4.3823,-4.3827,-4.383,-4.4016,-4.4019,-4.4021,0,0,0,0,0,0,-4.3577,-4.359,-4.3701,-4.365,-4.3664,-4.3686,-4.3717,-4.3719,-4.3738,-4.3762,-4.3765,-4.3741,-4.3787,-4.3797,-4.3857,-4.389,-4.3829,-4.3833,-4.4013,-4.4017,-4.402,-4.4058,0,0,0,0,0,0,-4.3573,-4.3589,-4.3616,-4.3651,-4.3667,-4.3754,-4.3719,-4.3722,-4.3747,-4.3744,-4.3778,-4.3781,-4.3786,-4.385,-4.3861,-4.3896,-4.3837,-4.401,-4.4015,-4.4019,-4.4053,-4.4062,-4.4069,0,0,0,0,0,-4.3567,-4.3622,-4.3618,-4.3631,-4.3701,-4.3756,-4.3765,-4.3771,-4.375,-4.3777,-4.3792,-4.378,-4.3885,-4.3856,-4.3869,-4.3905,-4.4008,-4.4014,-4.4019,-4.405,-4.406,-4.4069,0,0,0,0,0,0,-4.3588,-4.3627,-4.3622,-4.369,-4.372,-4.3753,-4.3787,-4.3782,-4.3817,-4.3812,-4.3817,-4.3825,-4.3886,-4.3901,-4.3868,-4.3975,-4.3943,-4.3951,-4.3963,-4.3973,-4.3981,-4.3976,-4.3841,0,0,0,0,0,-4.3601,-4.3644,-4.3675,-4.3732,-4.3747,-4.3765,-4.3789,-4.3792,-4.3822,-4.3834,-4.3854,-4.3883,-4.3923,-4.3948,-4.3986,-4.4056,-4.4063,-4.4087,-4.4095,-4.4101,-4.4108,-4.4148,-4.4159,-4.4039,-4.4039,-4.4038,0,0,-4.3627,-4.3654,-4.368,-4.3737,-4.376,-4.3804,-4.3775,-4.3822,-4.3854,-4.384,-4.3899,-4.3915,-4.3947,-4.4013,-4.4043,-4.4028,-4.4144,-4.4108,-4.4113,-4.4116,-4.4155,-4.4166,-4.4176,-4.4042,-4.4042,-4.4041,0,0,-4.3698,-4.3722,-4.3773,-4.3798,-4.3836,-4.3847,-4.386,-4.3894,-4.3905,-4.3964,-4.3956,-4.3994,-4.4061,-4.4086,-4.4107,-4.4191,-4.4181,-4.4202,-4.4244,-4.4282,-4.4292,-4.43,-4.4331,-4.4342,-4.4209,-4.4209,-4.4209,0,-4.3725,-4.3791,-4.3799,-4.3848,-4.3874,-4.3867,-4.3919,-4.3942,-4.3989,-4.4006,-4.3989,-4.4076,-4.4097,-4.417,-4.419,-4.4207,-4.4222,-4.4198,-4.429,-4.4299,-4.4307,-4.4336,-4.4348,-4.4212,-4.4211,-4.4211,-4.4211,0,-4.3824,-4.387,-4.3907,-4.3956,-4.3986,-4.4035,-4.4051,-4.408,-4.4081,-4.4094,-4.4155,-4.4181,-4.4225,-4.4242,-4.4242,-4.4315,-4.4305,-4.4289,-4.4257,-4.4321,-4.4348,-4.436,-4.4215,-4.4214,-4.4214,-4.4213,0,0,-4.3907,-4.3962,-4.3976,-4.3999,-4.4041,-4.4076,-4.4126,-4.4172,-4.4197,-4.423,-4.4272,-4.4332,-4.4318,-4.4342,-4.4345,-4.4379,-4.4446,-4.4359,-4.436,-4.4375,-4.4529,-4.4541,-4.4554,-4.444,-4.4442,-4.4444,-4.4527,0,-4.3982,-4.4072,-4.4083,-4.4162,-4.4206,-4.4201,-4.4245,-4.4275,-4.429,-4.4328,-4.4344,-4.4386,-4.4365,-4.438,-4.4413,-4.443,-4.4476,-4.4424,-4.4479,-4.4481,-4.4471,-4.4568,-4.4581,-4.4658,-4.4537,-4.4539,-4.4541,0,-4.4081,-4.412,-4.4205,-4.4244,-4.4263,-4.4302,-4.4346,-4.4383,-4.4417,-4.4426,-4.4455,-4.4454,-4.4505,-4.4473,-4.4544,-4.4508,-4.4531,-4.4543,-4.4547,-4.4552,-4.4514,-4.4577,-4.4682,-4.4694,-4.4557,-4.4556,-4.4555,0,-4.4134,-4.4208,-4.427,-4.4289,-4.4336,-4.4364,-4.4384,-4.4417,-4.4444,-4.4482,-4.45,-4.4542,-4.4566,-4.4598,-4.4609,-4.4584,-4.468,-4.4648,-4.4689,-4.4689,-4.4709,-4.4707,-4.482,-4.4723,-4.4723,-4.4723,-4.4722,0,-4.4217,-4.427,-4.4295,-4.4333,-4.4392,-4.4403,-4.4461,-4.448,-4.451,-4.4551,-4.4548,-4.4586,-4.4598,-4.4638,-4.4647,-4.4705,-4.4715,-4.4723,-4.4725,-4.4724,-4.4723,-4.4739,-4.4734,-4.4726,-4.4725,-4.4724,-4.4724,0,-4.4286,-4.4306,-4.4373,-4.4412,-4.4424,-4.4466,-4.4499,-4.4535,-4.4551,-4.4603,-4.4615,-4.4639,-4.4686,-4.4701,-4.4757,-4.4763,-4.4832,-4.4828,-4.4821,-4.4821,-4.4861,-4.4857,-4.4988,-4.5006,-4.4897,-4.4898,-4.4899,0,-4.4338,-4.4379,-4.4424,-4.4453,-4.4475,-4.4521,-4.455,-4.4563,-4.4593,-4.4637,-4.4668,-4.4716,-4.4755,-4.4831,-4.4852,-4.4896,-4.4893,-4.4936,-4.49,-4.4898,-4.4895,-4.4893,-4.4897,-4.4943,-4.4944,-4.4945,-4.4946,0,-4.4428,-4.4436,-4.4479,-4.4527,-4.4562,-4.4599,-4.4635,-4.4658,-4.4676,-4.471,-4.476,-4.4791,-4.485,-4.4898,-4.4943,-4.4962,-4.4957,-4.4958,-4.4969,-4.4969,-4.4963,-4.4968,-4.484,-4.4954,-4.4953,-4.4953,-4.4952,-4.4952,-4.4491,-4.4528,-4.4567,-4.4615,-4.4644,-4.4679,-4.4716,-4.4737,-4.4779,-4.483,-4.4835,-4.489,-4.4925,-4.4985,-4.5008,-4.505,-4.5037,-4.5054,-4.5058,-4.5062,-4.5066,-4.4957,-4.5058,-4.5058,-4.5057,-4.5057,-4.5057,0,-4.4581,-4.4607,-4.4652,-4.4704,-4.4742,-4.4737,-4.4777,-4.4809,-4.4858,-4.4892,-4.4931,-4.499,-4.5036,-4.5063,-4.5109,-4.5138,-4.5137,-4.515,-4.5148,-4.5153,-4.5074,-4.506,-4.515,-4.515,-4.515,-4.515,-4.515,-4.515,-4.4633,-4.4697,-4.471,-4.4788,-4.4813,-4.4868,-4.4891,-4.4923,-4.4951,-4.5017,-4.5057,-4.5075,-4.5106,-4.5156,-4.5198,-4.5205,-4.5222,-4.5237,-4.5242,-4.5168,-4.5158,-4.5149,-4.5136,-4.524,-4.524,-4.5317,-4.5318,-4.5318]}]]